[[{"header":{"parameterUnit":"m.s-1","parameterCategory":1,"la1":30.2991,"la2":30.254,"lo1":-89.0895,"lo2":-89.0444,"dy":0.0017,"dx":0.0017,"nx":28,"ny":28,"refTime":"2024-10-17T21:00:00:Z","depth":0,"parameterNumber":2,"parameterNumberName":"U-component_of_WINDS"},"data":[0,0,0,0,0,0,0,0,0,0,0,0,0,0,0,0,0,0,0,0,0,0,0,0,0,0,0,0,0,0,0,0,0,0,0,0,0,0,0,0,0,0,0,0,0,0,0,0,0,0,0,0,0,0,0,0,0,0,-5.7951,-5.7951,0,-5.7957,-5.7957,-5.7957,-5.7797,-5.7792,-5.7788,-5.7784,-5.7793,-5.7798,-5.7802,0,0,0,0,0,0,0,0,0,0,0,0,0,-5.7803,-5.7807,-5.7951,-5.7951,-5.7951,-5.7957,-5.7957,-5.7957,-5.7797,-5.7792,-5.7787,-5.7782,-5.7792,-5.7797,-5.7802,0,0,0,0,0,0,0,0,0,0,0,0,0,-5.7845,-5.7808,-5.7951,-5.7872,-5.7865,-5.7957,-5.7957,-5.7957,-5.7799,-5.7792,-5.7786,-5.778,-5.779,-5.7797,-5.7803,-5.7972,0,0,-5.7822,-5.7825,0,0,0,0,0,0,0,0,-5.7843,-5.785,-5.7883,-5.7877,-5.787,-5.7869,-5.7908,-5.7962,-5.78,-5.7824,-5.7784,-5.7776,-5.7824,-5.7827,-5.7843,-5.7972,-5.7973,-5.7823,-5.7827,-5.783,-5.7831,0,0,0,0,0,0,0,-5.784,-5.7849,-5.7953,-5.7884,-5.7876,-5.7837,-5.7836,-5.7918,-5.786,-5.7821,-5.781,-5.7812,-5.7819,-5.7837,-5.7842,-5.7973,-5.7823,-5.7828,-5.7832,-5.7835,-5.8244,-5.825,0,0,0,0,0,0,-5.7847,-5.7848,-5.7953,-5.7953,-5.784,-5.7845,-5.7844,-5.7876,-5.7859,-5.785,-5.7818,-5.7805,-5.7829,-5.7835,-5.7842,-5.804,-5.783,-5.7836,-5.7839,-5.8237,-5.8245,-5.8253,0,0,0,0,0,0,-5.7845,-5.7858,-5.7953,-5.7898,-5.7907,-5.7855,-5.7892,-5.788,-5.7897,-5.7856,-5.7846,-5.7847,-5.7824,-5.7833,-5.7941,-5.8038,-5.7838,-5.7844,-5.8229,-5.8239,-5.8249,-5.8438,0,0,0,0,0,0,-5.7841,-5.7858,-5.7921,-5.79,-5.791,-5.8052,-5.7898,-5.7885,-5.7908,-5.7892,-5.788,-5.7872,-5.782,-5.7932,-5.7947,-5.8043,-5.7849,-5.822,-5.8233,-5.8246,-5.8423,-5.8454,-5.848,0,0,0,0,0,-5.7837,-5.7974,-5.7925,-5.7939,-5.7987,-5.8058,-5.8063,-5.7999,-5.7917,-5.798,-5.7954,-5.7873,-5.8025,-5.7945,-5.796,-5.806,-5.8213,-5.823,-5.8245,-5.841,-5.8448,-5.8479,0,0,0,0,0,0,-5.8008,-5.797,-5.7915,-5.8049,-5.8058,-5.803,-5.8108,-5.8041,-5.8073,-5.8056,-5.7976,-5.7975,-5.8098,-5.8089,-5.8,-5.8224,-5.8105,-5.8124,-5.8225,-5.826,-5.8288,-5.8289,-5.7855,0,0,0,0,0,-5.8062,-5.8121,-5.8084,-5.8207,-5.8214,-5.8161,-5.8189,-5.8139,-5.8145,-5.8148,-5.8129,-5.8139,-5.8189,-5.8224,-5.8267,-5.842,-5.8417,-5.8497,-5.8525,-5.8549,-5.8568,-5.865,-5.8686,-5.8305,-5.8305,-5.8304,0,0,-5.8173,-5.8159,-5.8201,-5.8241,-5.8241,-5.8306,-5.8165,-5.8238,-5.8286,-5.8159,-5.8261,-5.8248,-5.8254,-5.8386,-5.8443,-5.8383,-5.8672,-5.8569,-5.8588,-5.8594,-5.867,-5.8707,-5.8739,-5.8316,-5.8314,-5.8312,0,0,-5.8408,-5.8403,-5.8506,-5.851,-5.8512,-5.8476,-5.8502,-5.8484,-5.8471,-5.8572,-5.8478,-5.8534,-5.8621,-5.863,-5.8646,-5.8888,-5.8815,-5.8904,-5.9054,-5.9136,-5.9166,-5.9192,-5.9281,-5.9313,-5.8922,-5.8923,-5.8923,0,-5.8547,-5.8639,-5.8567,-5.8648,-5.8669,-5.8556,-5.8661,-5.8668,-5.8686,-5.8704,-5.8635,-5.8744,-5.8739,-5.8873,-5.8933,-5.8948,-5.8976,-5.8906,-5.9167,-5.9193,-5.9216,-5.93,-5.9333,-5.8934,-5.8933,-5.8931,-5.893,0,-5.881,-5.8876,-5.8958,-5.8978,-5.9009,-5.9101,-5.9044,-5.9084,-5.9032,-5.9004,-5.9109,-5.91,-5.9141,-5.9169,-5.9119,-5.9297,-5.926,-5.9181,-5.906,-5.9265,-5.9342,-5.9374,-5.895,-5.8946,-5.8942,-5.894,0,0,-5.9154,-5.9134,-5.9165,-5.9174,-5.917,-5.922,-5.9308,-5.9348,-5.9384,-5.9401,-5.9474,-5.9551,-5.9479,-5.9497,-5.9447,-5.9519,-5.9714,-5.9431,-5.943,-5.9486,-5.9913,-5.9974,-6.0012,-5.9665,-5.9671,-5.9675,-5.9913,0,-5.9385,-5.9533,-5.9472,-5.9627,-5.9688,-5.9583,-5.966,-5.9667,-5.9644,-5.9693,-5.9667,-5.9725,-5.9623,-5.9634,-5.97,-5.9676,-5.9799,-5.9658,-5.9735,-5.9738,-5.9738,-6.0052,-6.0116,-6.0341,-5.9943,-5.9948,-5.9951,0,-5.9673,-5.9702,-5.9864,-5.985,-5.9874,-5.9944,-5.9977,-6.0025,-6.0031,-6.0009,-6.0031,-5.9966,-6.0053,-5.9932,-6.0052,-5.9958,-5.9986,-5.9979,-5.9986,-5.9993,-5.9859,-6.0069,-6.0411,-6.0446,-5.9998,-5.9994,-5.9991,0,-5.9912,-5.999,-6.0097,-6.0108,-6.0094,-6.0147,-6.0144,-6.0143,-6.0172,-6.0201,-6.0219,-6.0258,-6.028,-6.0313,-6.026,-6.0176,-6.039,-6.0263,-6.0376,-6.0378,-6.0427,-6.0425,-6.0781,-6.0442,-6.0442,-6.0441,-6.044,0,-6.0177,-6.028,-6.0204,-6.0271,-6.0384,-6.0313,-6.0428,-6.0413,-6.0414,-6.0477,-6.0388,-6.045,-6.0376,-6.0431,-6.039,-6.0498,-6.0508,-6.0494,-6.0483,-6.0503,-6.0506,-6.0522,-6.0506,-6.045,-6.0448,-6.0446,-6.0444,0,-6.0462,-6.0415,-6.0525,-6.0504,-6.0501,-6.0586,-6.0568,-6.063,-6.06,-6.0682,-6.0697,-6.0651,-6.0711,-6.0662,-6.072,-6.0693,-6.0837,-6.0802,-6.0835,-6.0826,-6.0943,-6.0933,-6.1323,-6.1371,-6.1,-6.1004,-6.1007,0,-6.0635,-6.0712,-6.07,-6.0735,-6.0738,-6.0796,-6.0825,-6.0759,-6.0793,-6.0807,-6.0868,-6.092,-6.0958,-6.106,-6.1033,-6.1078,-6.1045,-6.1178,-6.1051,-6.1071,-6.105,-6.1047,-6.1056,-6.1205,-6.1209,-6.1213,-6.1216,0,-6.0949,-6.0922,-6.0966,-6.1005,-6.1042,-6.1068,-6.1088,-6.1122,-6.1054,-6.1098,-6.1158,-6.1188,-6.1248,-6.1302,-6.1338,-6.1336,-6.1267,-6.1256,-6.1285,-6.1308,-6.1325,-6.132,-6.0908,-6.1248,-6.1244,-6.1242,-6.124,-6.1239,-6.1184,-6.1249,-6.1251,-6.1305,-6.1312,-6.1333,-6.1391,-6.1369,-6.1418,-6.1461,-6.1419,-6.1493,-6.1499,-6.1541,-6.1548,-6.1606,-6.155,-6.1592,-6.1603,-6.1614,-6.1632,-6.1314,-6.1612,-6.1611,-6.161,-6.1609,-6.1608,0,-6.1495,-6.1491,-6.1541,-6.1572,-6.1615,-6.1544,-6.1562,-6.1604,-6.1669,-6.1681,-6.1721,-6.1792,-6.1844,-6.1822,-6.1869,-6.192,-6.1889,-6.1935,-6.1931,-6.1933,-6.1678,-6.1649,-6.1959,-6.1959,-6.1959,-6.1959,-6.1959,-6.1958,-6.1662,-6.1769,-6.1743,-6.1853,-6.1848,-6.192,-6.1937,-6.1957,-6.1966,-6.2049,-6.2092,-6.2077,-6.2076,-6.2122,-6.2168,-6.216,-6.2183,-6.2241,-6.2222,-6.1985,-6.195,-6.1917,-6.189,-6.2245,-6.2246,-6.2472,-6.2474,-6.2476]},{"header":{"parameterUnit":"m.s-1","parameterCategory":1,"la1":30.2991,"la2":30.254,"lo1":-89.0895,"lo2":-89.0444,"dy":0.0017,"dx":0.0017,"nx":28,"ny":28,"refTime":"2024-10-17T21:00:00:Z","depth":0,"parameterNumber":3,"parameterNumberName":"V-component_of_WINDS"},"data":[0,0,0,0,0,0,0,0,0,0,0,0,0,0,0,0,0,0,0,0,0,0,0,0,0,0,0,0,0,0,0,0,0,0,0,0,0,0,0,0,0,0,0,0,0,0,0,0,0,0,0,0,0,0,0,0,0,0,-1.2225,-1.2224,0,-1.2202,-1.2201,-1.2201,-1.214,-1.2138,-1.2137,-1.2136,-1.2114,-1.2115,-1.2115,0,0,0,0,0,0,0,0,0,0,0,0,0,-1.2215,-1.2216,-1.2225,-1.2224,-1.2224,-1.2202,-1.2201,-1.2201,-1.214,-1.2138,-1.2137,-1.2135,-1.2114,-1.2115,-1.2115,0,0,0,0,0,0,0,0,0,0,0,0,0,-1.2209,-1.2216,-1.2225,-1.2191,-1.2187,-1.2202,-1.2201,-1.2201,-1.214,-1.2138,-1.2136,-1.2134,-1.2113,-1.2114,-1.2115,-1.2161,0,0,-1.2118,-1.2119,0,0,0,0,0,0,0,0,-1.2209,-1.2209,-1.2196,-1.2193,-1.2189,-1.2171,-1.219,-1.2188,-1.2141,-1.2158,-1.2136,-1.2133,-1.2135,-1.2134,-1.2134,-1.216,-1.2159,-1.2118,-1.2119,-1.212,-1.212,0,0,0,0,0,0,0,-1.221,-1.221,-1.2216,-1.2196,-1.2192,-1.2177,-1.2174,-1.2189,-1.2158,-1.2157,-1.2152,-1.215,-1.2133,-1.2133,-1.2133,-1.2159,-1.2118,-1.2119,-1.212,-1.212,-1.222,-1.2222,0,0,0,0,0,0,-1.2215,-1.2211,-1.2216,-1.2215,-1.2195,-1.2178,-1.2175,-1.2179,-1.2158,-1.2152,-1.2152,-1.2147,-1.2133,-1.2132,-1.2132,-1.2184,-1.2119,-1.212,-1.2121,-1.2218,-1.2221,-1.2223,0,0,0,0,0,0,-1.2215,-1.2216,-1.2217,-1.2211,-1.221,-1.2181,-1.2186,-1.218,-1.218,-1.2154,-1.2148,-1.2158,-1.2131,-1.2131,-1.2154,-1.2183,-1.2121,-1.2122,-1.2216,-1.2219,-1.2222,-1.2289,0,0,0,0,0,0,-1.2215,-1.2216,-1.2234,-1.2212,-1.2211,-1.224,-1.2188,-1.2181,-1.2182,-1.2176,-1.2159,-1.2154,-1.2129,-1.2153,-1.2155,-1.2183,-1.2123,-1.2213,-1.2217,-1.2221,-1.2284,-1.2294,-1.2303,0,0,0,0,0,-1.2215,-1.2254,-1.2235,-1.2236,-1.2232,-1.2242,-1.2241,-1.2212,-1.2185,-1.2202,-1.2184,-1.2154,-1.2179,-1.2156,-1.2158,-1.2186,-1.2211,-1.2216,-1.2221,-1.228,-1.2292,-1.2302,0,0,0,0,0,0,-1.2281,-1.2251,-1.2229,-1.2263,-1.2255,-1.2231,-1.2252,-1.2226,-1.2226,-1.2221,-1.2184,-1.2181,-1.2209,-1.22,-1.2175,-1.2229,-1.219,-1.2195,-1.2235,-1.2246,-1.2255,-1.2257,-1.2123,0,0,0,0,0,-1.2299,-1.2309,-1.2282,-1.2315,-1.2312,-1.2283,-1.2286,-1.2264,-1.2255,-1.2251,-1.2236,-1.2229,-1.2234,-1.2239,-1.2243,-1.2282,-1.2277,-1.2302,-1.2311,-1.2319,-1.2324,-1.2344,-1.2354,-1.2238,-1.2238,-1.2238,0,0,-1.2338,-1.2322,-1.2331,-1.2327,-1.2319,-1.233,-1.2281,-1.2295,-1.2303,-1.2254,-1.2275,-1.2263,-1.2252,-1.2283,-1.2296,-1.2276,-1.2355,-1.2325,-1.2331,-1.2332,-1.2349,-1.2361,-1.237,-1.2242,-1.2241,-1.2241,0,0,-1.2414,-1.2403,-1.2428,-1.242,-1.2407,-1.2387,-1.2393,-1.2373,-1.2363,-1.2383,-1.2346,-1.2355,-1.2366,-1.236,-1.2358,-1.2429,-1.2401,-1.2431,-1.248,-1.2499,-1.2508,-1.2516,-1.2542,-1.2552,-1.2436,-1.2436,-1.2437,0,-1.2463,-1.2479,-1.2445,-1.2461,-1.2461,-1.2414,-1.244,-1.2434,-1.2423,-1.2424,-1.2401,-1.2413,-1.2403,-1.2432,-1.2449,-1.2448,-1.2454,-1.2434,-1.2509,-1.2517,-1.2524,-1.2548,-1.2558,-1.244,-1.244,-1.2439,-1.2439,0,-1.254,-1.2552,-1.2573,-1.2564,-1.2565,-1.2586,-1.2555,-1.256,-1.2537,-1.252,-1.2541,-1.2526,-1.2526,-1.253,-1.2509,-1.2556,-1.2544,-1.2516,-1.2476,-1.2539,-1.2562,-1.2571,-1.2446,-1.2444,-1.2443,-1.2442,0,0,-1.266,-1.2629,-1.2638,-1.2633,-1.2614,-1.2622,-1.264,-1.2639,-1.2645,-1.2638,-1.2653,-1.2662,-1.2635,-1.2633,-1.261,-1.2626,-1.2684,-1.2596,-1.2595,-1.2614,-1.2735,-1.2758,-1.2769,-1.2664,-1.2666,-1.2667,-1.2736,0,-1.2733,-1.2762,-1.2731,-1.2767,-1.2777,-1.2732,-1.2747,-1.2738,-1.2721,-1.2727,-1.2708,-1.2716,-1.2679,-1.2678,-1.2692,-1.2674,-1.2708,-1.2668,-1.2678,-1.2679,-1.2684,-1.278,-1.2804,-1.2871,-1.2745,-1.2746,-1.2747,0,-1.2822,-1.2818,-1.2855,-1.2833,-1.2836,-1.2851,-1.2846,-1.2852,-1.284,-1.2826,-1.2823,-1.2794,-1.281,-1.277,-1.2792,-1.2766,-1.2767,-1.2759,-1.276,-1.2762,-1.2718,-1.2786,-1.2891,-1.2902,-1.276,-1.2759,-1.2758,0,-1.2906,-1.2911,-1.2933,-1.293,-1.2904,-1.2915,-1.2905,-1.2891,-1.2892,-1.2888,-1.2888,-1.2886,-1.2886,-1.2885,-1.2856,-1.283,-1.2882,-1.2839,-1.2871,-1.2872,-1.2886,-1.2886,-1.2995,-1.2885,-1.2885,-1.2885,-1.2885,0,-1.2992,-1.3016,-1.2971,-1.2985,-1.3011,-1.2974,-1.3,-1.2985,-1.2972,-1.2983,-1.2943,-1.2954,-1.2914,-1.292,-1.2898,-1.2919,-1.2919,-1.2909,-1.2903,-1.2913,-1.2915,-1.2916,-1.2911,-1.2887,-1.2887,-1.2886,-1.2886,0,-1.3092,-1.3062,-1.3084,-1.3057,-1.305,-1.3071,-1.3048,-1.3059,-1.3039,-1.3052,-1.3053,-1.3022,-1.3027,-1.2997,-1.2997,-1.2982,-1.3015,-1.3,-1.3019,-1.3015,-1.305,-1.3047,-1.3164,-1.3178,-1.3058,-1.3059,-1.306,0,-1.3149,-1.3166,-1.3141,-1.3144,-1.3136,-1.3142,-1.3143,-1.3106,-1.3108,-1.3094,-1.3107,-1.3109,-1.3108,-1.3118,-1.3096,-1.3095,-1.3081,-1.3122,-1.3081,-1.3091,-1.3083,-1.3083,-1.3085,-1.3131,-1.3133,-1.3134,-1.3135,0,-1.3254,-1.3238,-1.3239,-1.3235,-1.3236,-1.3232,-1.3225,-1.323,-1.319,-1.3194,-1.3198,-1.3198,-1.3197,-1.3199,-1.3193,-1.3183,-1.3153,-1.3147,-1.3155,-1.3167,-1.3178,-1.3173,-1.3044,-1.3146,-1.3145,-1.3144,-1.3143,-1.3143,-1.3335,-1.3348,-1.3332,-1.3334,-1.3324,-1.3318,-1.3328,-1.3307,-1.331,-1.3306,-1.3284,-1.3292,-1.3278,-1.3267,-1.3259,-1.3265,-1.3246,-1.3256,-1.3259,-1.3263,-1.327,-1.3175,-1.3264,-1.3263,-1.3263,-1.3263,-1.3262,0,-1.3438,-1.3425,-1.3427,-1.3418,-1.342,-1.3389,-1.3379,-1.3383,-1.339,-1.3379,-1.3379,-1.3383,-1.3384,-1.3361,-1.3359,-1.3368,-1.3354,-1.3369,-1.3369,-1.3367,-1.3287,-1.3281,-1.338,-1.338,-1.338,-1.338,-1.338,-1.338,-1.3493,-1.3513,-1.3495,-1.351,-1.3496,-1.3503,-1.35,-1.3494,-1.3484,-1.3491,-1.3491,-1.3475,-1.3459,-1.3455,-1.3455,-1.3448,-1.345,-1.347,-1.3458,-1.3384,-1.3373,-1.3362,-1.3356,-1.347,-1.347,-1.3538,-1.3538,-1.3539]}]]